(°C)
(°C)
ESE
ESE
ESE
ESE
ESE
ESE
ESE
(km/h)
18-26
19-30
19-33
19-34
17-32
15-30
15-29
(mm)
0
0.8
1
0.8
1
1.2
0
(%)
84
99
99
99
99
83
64

Elevazione del sole

/ -13°
sun-icon
UV 1
06:34
20:12
Luna calante (341°)
06:38
18:19

METAR per Bordenau (ETNW)

Ora Condizioni Temperatura/
Punto di rugiada
Vento Visibilità Tempo Nuvole Pressione Cambiamento Grezzo
7°C / 6°C 110º 15kt 4100m - 1011 - ETNW 101920Z AUTO 11015KT 4100 // ////// 07/06 Q1011 ///
7°C / 6°C 100º 12kt 4600m - 1012 - ETNW 101820Z AUTO 10012KT 4600 // ////// 07/06 Q1012 ///
7°C / 6°C 100º 10kt 3900m - 1012 - ETNW 101720Z AUTO 10010KT 3900 // ////// 07/06 Q1012 ///
8°C / 5°C 100º 8kt 5000m - 1013 - ETNW 101620Z AUTO 10008KT 5000 // ////// 08/05 Q1013 ///
8°C / 3°C 100º 10kt 7000m - 1014 - ETNW 101520Z AUTO 10010KT 7000 // ////// 08/03 Q1014 ///
8°C / 3°C 100º 10kt 7000m - 1014 - ETNW 101420Z AUTO 10010KT 7000 // ////// 08/03 Q1014 ///
8°C / 3°C 100º 9kt 7000m - 1015 - ETNW 101320Z AUTO 10009KT 7000 // ////// 08/03 Q1015 ///
7°C / 3°C 90º 9kt 7000m - 1015 - ETNW 101220Z AUTO 09009KT 7000 // ////// 07/03 Q1015 ///
7°C / 3°C 90º 8kt 7000m - 1016 - ETNW 101120Z AUTO 09008KT 7000 // ////// 07/03 Q1016 ///
8°C / 4°C 90º 9kt 7000m - 1016 - ETNW 101020Z AUTO 09009KT 7000 // ////// 08/04 Q1016 ///
6°C / 4°C 70º 7kt 7000m - 1015 - ETNW 100920Z AUTO 07007KT 7000 // ////// 06/04 Q1015 ///
6°C / 4°C 90º 7kt 6000m - 1015 - ETNW 100820Z AUTO 09007KT 6000 // ////// 06/04 Q1015 ///
5°C / 4°C 60º 5kt 5000m - 1015 - ETNW 100720Z AUTO 06005KT 5000 // ////// 05/04 Q1015 ///
4°C / 4°C 50º 5kt 5000m - 1014 - ETNW 100620Z AUTO 05005KT 5000 // ////// 04/04 Q1014 ///
4°C / 4°C 30º 6kt 3800m - 1013 - ETNW 100520Z AUTO 03006KT 3800 // ////// 04/04 Q1013 ///
4°C / 4°C 30º 4kt 6000m - 1013 - ETNW 100420Z AUTO 03004KT 6000 // ////// 04/04 Q1013 ///
4°C / 4°C 30º 4kt 7000m - 1013 - ETNW 100320Z AUTO 03004KT 7000 // ////// 04/04 Q1013 ///
5°C / 4°C 20º 4kt 5000m - 1012 - ETNW 100220Z AUTO 02004KT 5000 // ////// 05/04 Q1012 ///
4°C / 4°C 50º 3kt 7000m - 1012 - ETNW 100120Z AUTO 05003KT 7000 // ////// 04/04 Q1012 ///
4°C / 4°C 30º 1kt 8000m - 1012 - ETNW 100020Z AUTO 03001KT 8000 // ////// 04/04 Q1012 ///
5°C / 4°C 30º 1kt 8000m - 1012 - ETNW 092320Z AUTO 03001KT 8000 // ////// 05/04 Q1012 ///
5°C / 4°C 210º 3kt 8000m - 1012 - ETNW 092220Z AUTO 21003KT 8000 // ////// 05/04 Q1012 ///
5°C / 4°C 310º 2kt 8000m - 1012 - ETNW 092120Z AUTO 31002KT 8000 // ////// 05/04 Q1012 ///
6°C / 4°C 20º 6kt 9000m - 1012 - ETNW 092020Z AUTO 02006KT 9000 // ////// 06/04 Q1012 ///

7°C / 6°C

[Più]
Vento 110º 15kt
Visibilità 4100m
Tempo -
Nuvole
Pressione 1011
Cambiamento -
Grezzo ETNW 101920Z AUTO 11015KT 4100 // ////// 07/06 Q1011 ///

7°C / 6°C

[Più]
Vento 100º 12kt
Visibilità 4600m
Tempo -
Nuvole
Pressione 1012
Cambiamento -
Grezzo ETNW 101820Z AUTO 10012KT 4600 // ////// 07/06 Q1012 ///

7°C / 6°C

[Più]
Vento 100º 10kt
Visibilità 3900m
Tempo -
Nuvole
Pressione 1012
Cambiamento -
Grezzo ETNW 101720Z AUTO 10010KT 3900 // ////// 07/06 Q1012 ///

8°C / 5°C

[Più]
Vento 100º 8kt
Visibilità 5000m
Tempo -
Nuvole
Pressione 1013
Cambiamento -
Grezzo ETNW 101620Z AUTO 10008KT 5000 // ////// 08/05 Q1013 ///

8°C / 3°C

[Più]
Vento 100º 10kt
Visibilità 7000m
Tempo -
Nuvole
Pressione 1014
Cambiamento -
Grezzo ETNW 101520Z AUTO 10010KT 7000 // ////// 08/03 Q1014 ///

8°C / 3°C

[Più]
Vento 100º 10kt
Visibilità 7000m
Tempo -
Nuvole
Pressione 1014
Cambiamento -
Grezzo ETNW 101420Z AUTO 10010KT 7000 // ////// 08/03 Q1014 ///

8°C / 3°C

[Più]
Vento 100º 9kt
Visibilità 7000m
Tempo -
Nuvole
Pressione 1015
Cambiamento -
Grezzo ETNW 101320Z AUTO 10009KT 7000 // ////// 08/03 Q1015 ///

7°C / 3°C

[Più]
Vento 90º 9kt
Visibilità 7000m
Tempo -
Nuvole
Pressione 1015
Cambiamento -
Grezzo ETNW 101220Z AUTO 09009KT 7000 // ////// 07/03 Q1015 ///

7°C / 3°C

[Più]
Vento 90º 8kt
Visibilità 7000m
Tempo -
Nuvole
Pressione 1016
Cambiamento -
Grezzo ETNW 101120Z AUTO 09008KT 7000 // ////// 07/03 Q1016 ///

8°C / 4°C

[Più]
Vento 90º 9kt
Visibilità 7000m
Tempo -
Nuvole
Pressione 1016
Cambiamento -
Grezzo ETNW 101020Z AUTO 09009KT 7000 // ////// 08/04 Q1016 ///

6°C / 4°C

[Più]
Vento 70º 7kt
Visibilità 7000m
Tempo -
Nuvole
Pressione 1015
Cambiamento -
Grezzo ETNW 100920Z AUTO 07007KT 7000 // ////// 06/04 Q1015 ///

6°C / 4°C

[Più]
Vento 90º 7kt
Visibilità 6000m
Tempo -
Nuvole
Pressione 1015
Cambiamento -
Grezzo ETNW 100820Z AUTO 09007KT 6000 // ////// 06/04 Q1015 ///

5°C / 4°C

[Più]
Vento 60º 5kt
Visibilità 5000m
Tempo -
Nuvole
Pressione 1015
Cambiamento -
Grezzo ETNW 100720Z AUTO 06005KT 5000 // ////// 05/04 Q1015 ///

4°C / 4°C

[Più]
Vento 50º 5kt
Visibilità 5000m
Tempo -
Nuvole
Pressione 1014
Cambiamento -
Grezzo ETNW 100620Z AUTO 05005KT 5000 // ////// 04/04 Q1014 ///

4°C / 4°C

[Più]
Vento 30º 6kt
Visibilità 3800m
Tempo -
Nuvole
Pressione 1013
Cambiamento -
Grezzo ETNW 100520Z AUTO 03006KT 3800 // ////// 04/04 Q1013 ///

4°C / 4°C

[Più]
Vento 30º 4kt
Visibilità 6000m
Tempo -
Nuvole
Pressione 1013
Cambiamento -
Grezzo ETNW 100420Z AUTO 03004KT 6000 // ////// 04/04 Q1013 ///

4°C / 4°C

[Più]
Vento 30º 4kt
Visibilità 7000m
Tempo -
Nuvole
Pressione 1013
Cambiamento -
Grezzo ETNW 100320Z AUTO 03004KT 7000 // ////// 04/04 Q1013 ///

5°C / 4°C

[Più]
Vento 20º 4kt
Visibilità 5000m
Tempo -
Nuvole
Pressione 1012
Cambiamento -
Grezzo ETNW 100220Z AUTO 02004KT 5000 // ////// 05/04 Q1012 ///

4°C / 4°C

[Più]
Vento 50º 3kt
Visibilità 7000m
Tempo -
Nuvole
Pressione 1012
Cambiamento -
Grezzo ETNW 100120Z AUTO 05003KT 7000 // ////// 04/04 Q1012 ///

4°C / 4°C

[Più]
Vento 30º 1kt
Visibilità 8000m
Tempo -
Nuvole
Pressione 1012
Cambiamento -
Grezzo ETNW 100020Z AUTO 03001KT 8000 // ////// 04/04 Q1012 ///

5°C / 4°C

[Più]
Vento 30º 1kt
Visibilità 8000m
Tempo -
Nuvole
Pressione 1012
Cambiamento -
Grezzo ETNW 092320Z AUTO 03001KT 8000 // ////// 05/04 Q1012 ///

5°C / 4°C

[Più]
Vento 210º 3kt
Visibilità 8000m
Tempo -
Nuvole
Pressione 1012
Cambiamento -
Grezzo ETNW 092220Z AUTO 21003KT 8000 // ////// 05/04 Q1012 ///

5°C / 4°C

[Più]
Vento 310º 2kt
Visibilità 8000m
Tempo -
Nuvole
Pressione 1012
Cambiamento -
Grezzo ETNW 092120Z AUTO 31002KT 8000 // ////// 05/04 Q1012 ///

6°C / 4°C

[Più]
Vento 20º 6kt
Visibilità 9000m
Tempo -
Nuvole
Pressione 1012
Cambiamento -
Grezzo ETNW 092020Z AUTO 02006KT 9000 // ////// 06/04 Q1012 ///

TAF per Bordenau (ETNW)

From till


From till Wind 220º 15kt. Gust 25kt. Visibility 10km or more. Broken Clouds 3000ft.
Becoming from till Wind 260º 7kt. Visibility 10km or more. Scattered Clouds 1000ft. Broken Clouds 3500ft.
Temporarly from till Wind 360º 4kt. Visibility 3000m. Rain Drizzle . Broken Clouds 500ft. Overcast 1000ft.
Becoming from till Wind 20º 5kt. Visibility 10km or more. Broken Clouds 2000ft.

Grezzo: TAF ETNW 091020Z 0911/1011 22015G25KT 9999 NSW BKN030 BECMG 0916/0918 26007KT 9999 NSW SCT010 BKN035 TEMPO 0918/1005 36004KT 3000 RADZ BKN005 OVC010 BECMG 1005/1007 02005KT 9999 NSW BKN020 BY ETGL

Tempo in atto per Bordenau: immagine satellitare e pioggia, Germania

  • Precipitazioni:
  • <1 mm
  • 1-2 mm
  • 2-5 mm
  • >5 mm

Il segnaposto è situato a Bordenau. [Più]

L'immagine satellitare in tempo reale combina la luce visibile durante il giorno con la radiazione infrarossa durante la notte. Di notte l'immagine non è scura poiché i raggi infrarossi possono rilevare differenze di temperatura. Purtroppo, le nuvole basse e la nebbia sono difficili da distinguere dalla temperatura del suolo e possono pertanto essere quasi invisibili durante la notte. Le immagini satellitari Meteosat per l'Europa vengono aggiornate in tempo reale ogni 5 minuti. Le immagini GOES-16 / GOES-17 (Nord e Sud America) e Himawari (Asia) vengono aggiornate ogni 10 minuti.

Le precipitazioni sono stimate da radar e satellite. Una precipitazione notturna stimata da satellite è meno accurata di una diurna. Le croci arancioni identificano i fulmini caduti (in Europa).

Copyright 2021 EUMETSAT / meteoblue. Fulminazioni fornite da nowcast.

Radar per Bordenau

Il segnaposto è situato a Bordenau. Questa animazione mostra il radar delle precipitazioni per l'ultima ora, nonché una previsione 2h. Il radar può non individuare correttamente pioviggine o nevischio. L’intensità delle precipitazioni è associata a una scala di colori, dal blu chiaro fino al viola scuro.
Copyright 2021 Deutscher Wetterdienst / meteoblue.

Situazione meteo attuale e allerta

EUMETNET – MeteoAlarm

pictomap

Fonte: DWD

Sono possibili ritardi tra questo sito e www.meteoalarm.eu: per avere informazioni sempre aggiornate sui livelli d'allerta come pubblicati dai Servizi Meteorologici Nazionali, visitate www.meteoalarm.eu.